Погода в Шилке

Погода в Шилке : погода сейчас, прогноз погоды и архив. Всё, что Вы хотите узнать о погоде в Шилке!

Хотите узнать прогноз погоды в Шилке? Тогда Вам сюда: Погода в Шилке

Поиск расширенной информации на нашем сайте:

Другие новости

Новости СМИ2

Главная страница сайта

Новости сайта

03.07.2017

Напоминаем, что на нашем специализированном сайте Метеоцентр.Азия вы можете получить высокодетализированные автоматические прогнозы погоды по пунктам России, СНГ и мира в авиационном формате (включающие направление и скорость ветра, видимость, явления погоды, количество и форму облачности, нижнюю и верхнюю границу облачности).


Погода в Шилке - сегодня

Время (UTC), дата Ветер
(°,м/с) 
Видим.   Явления Облачность Т
(°С)
Тd
(°С)
f(%) Тe
(°С)
Pmin
(гПа)
dP
(гПа)
Po
(мм)
O2
(г/м3)
Тmin Tmax R s Состояние
почвы
00 21.05.18 110 (В) 20000 м    9/0 средняя 
[Ac As]
+20.2 +6.7 41 +20  998.6  -1.5  699  261  +14.8        сухая 
12 21.05.18 230 (ЮЗ) 6{12}  10 км  слаб. ливневой дождь  10/8 600 м кучево-дожд., средняя 
[Cb calv|Ac As]
+3.4 +2.6 94 +1  1006.8  702  279    +21.9     
15 21.05.18 230 (ЮЗ) 50000 м  {ливн. осадки}  10/5 600 м кучево-дожд., средняя 
[Cb calv|Ac As]
+3.3 +1.8 90 +1  1004.7  -2  701  278           
18 21.05.18 250 (З) 50000 м  {ливн. осадки}  8/4 1000 м кучево-дожд., средняя 
[Cb calv|Ac trans]
+2.3 -5.8 55 -1  1004.3  -0.7  700  280           
21 21.05.18 240 (ЮЗ) н/о    н/о 
-0.7 -5.7 69 -4  1004.3  -0.8  699  283           
00 22.05.18 250 (З) 8-11{13}  20000 м    5/4 1000 м средняя 
[Cu med, cong|Ac trans]
+4.7 -5.3 48 +1  1001.5  -1.2  698  277  -1.2    0.4    влажная 
12 22.05.18 250 (З) 5{13}  20000 м  {ливн. осадки}  9/6 600 м кучево-дожд., средняя, верхняя 
[Cb calv|Ac As|Ci sp]
+5 +0.9 75 +3  993.2  693  274    +8.8  0.3     
15 22.05.18 270 (З) 2{11}  20000 м    10/9 600 м кучево-дожд., средняя 
[Cb calv|Ac As]
+3.3 +1.4 87 +3  992.8  -0.8  692  275           
18 22.05.18 200 (Ю) 40000 м    9/6 600 м кучево-дожд., средняя, верхняя 
[Cb calv|Ac As|Ci sp]
+1.5 +0.9 96 +2  991.7  -0.8  691  277           
21 22.05.18 210 (ЮЗ) 20000 м    9/4 1000 м кучево-дожд., средняя, верхняя 
[Cb calv|Ac As|Ci sp]
+2.9 +0.1 82 +2  990.5  -0.8  691  275           
00 23.05.18 230 (ЮЗ) 20000 м    10/0 средняя 
[As op]
+7.4 -1.1 55 +6  989.2  -0.2  690  271  +1        сухая 
12 23.05.18 120 (ЮВ) 20000 м  {ливн. осадки}  9/4 1000 м кучево-дожд., средняя, верхняя 
[Cb calv|Ac cuf|Ci sp]
+7.4 +4.6 82 +7  994.3  1.8  694  271    +13.5  0.9     
15 23.05.18 210 (ЮЗ) 20000 м    ясно 
+4.2 +3.3 94 +5  996.3  1.1  695  275           
18 23.05.18 220 (ЮЗ) н/о    н/о 
+2.5 +2.4 99 +3  998.7  1.8  696  277           
21 23.05.18 290 (З) 20000 м    8/0 средняя 
[Ac trans]
+1.4 +1.4 100 +2  1001.6  2.5  698  279           
00 24.05.18 080 (В) 20000 м  туман на расстоянии  ясно 
+5 +4.5 97 +3  1003.8  700  276  +0.2        влажная 
03 24.05.18 070 (В) 20000 м    5/3 1000 м верхняя 
[Cu med, cong|Ci sp]
+10.4 +5.1 70 +10  1004.2  1.7  701  271           
06 24.05.18 070 (В) 5{10}  20000 м    3/3 1000 м 
[Cu med, cong]
+15 +1.6 40 +15  1003.3  0.1  702  268           
09 24.05.18 070 (В) 5{10}  20000 м    8/3 1000 м средняя, верхняя 
[Cu med, cong|Ac trans|Ci sp]
+16 +1.2 37 +16  1003.8  0.7  702  267           
15 24.05.18 340 (С) 50000 м    3/0 средняя 
[Ac trans]
+7.1 +1.8 69 +7  1010.2  2.1  705  277           
18 24.05.18 160 (Ю) н/о    н/о 
+2.8 +1 88 +1  1012.8  1.3  706  281           
21 24.05.18 160 (Ю) 20000 м    1/0 средняя 
[Ac lent]
+1.4 +1.2 99 +1  1014  0.8  707  283           
00 25.05.18 030 (СВ) 20000 м    1/0 средняя 
[Ac lent]
+10.4 +3.2 61 +12  1012.7  707  274  +0.5        сухая 
03 25.05.18 080 (В) 20000 м    3/1 1000 м верхняя 
[Cu med, cong|Ci fib]
+18.1 -4 22 +18  1009.8  -1  707  267           
06 25.05.18 020 (С) 20000 м    5/3 1000 м верхняя 
[Cu med, cong|Ci fib]
+20.1 -4 19 +20  1007.9  -1.3  706  265           
Время (UTC), дата Ветер
(°,м/с) 
Видим.   Явления Облачность Т
(°С)
Тd
(°С)
f(%) Тe
(°С)
Pmin
(гПа)
dP
(гПа)
Po
(мм)
O2
(г/м3)
Тmin Tmax R s Состояние
почвы

Для получения пояснительной информации подведите курсор к названию столбца.

ПОГОДА в Шилке - архив

Всё, что Вы хотите узнать о погоде в Шилке - удобно и подробно!

Выберите нужную дату (начиная с 1 января 2015* года) и нажмите кнопку "Найти".
Будут отображены архивные сводки погоды по пункту Шилка, начиная с указанной даты.


Отображать данные в формате CSV (для использования в таблицах Excel)


Внимание! Наш архив погоды предназначен исключительно для личного некоммерческого использования в познавательных целях. Если Вам необходимы официальные справки о состоянии погоды (для производственных, юридических, коммерческих и т.п. целей), обращайтесь в органы Росгидромета.

*Примечание: данная дата относится к архиву по метеостанциям СССР (Россия, СНГ, Балтия).
Архив по метеостанциям Зарубежной Европы и Азии (кроме Китая) хранится 10 дней, по другим регионам земного шара (Китай, Африка, Америка, Австралия, Океания) - 1 день.

Шилка - район местоположения метеостанции


Название, широта, долгота, высота метеостанции:
Шилка 51.9°ш. 116°д. 597 м над ур. моря [Российская Федерация]

Дополнительная информация

В oтличие oт бoльшинства пoгoдных сайтoв мы публикуем пoдрoбную метеoинфoрмацию в детальнoм прoфессиoнальнoм фoрмате.

Характеристики температуры и влажнoсти вoздуха измеряются на высoте 2 м в тени вдали oт зданий и деревьев.
Скoрoсть ветра измеряется на высoте 10 м (на урoвне рoста челoвека скoрoсть ветра ниже в 1.5-2 раза). Если метеoстанция нахoдится в гoрoде или в лесу, тo скoрoсть ветра занижена на 2-4 м/с пo сравнению с oткрытым местoм. Скoрoсть ветра над акватoриями крупных рек и oзёр, а также на вершинах хoлмoв на 2-5 м/с выше, чем в oбычных услoвиях.
Атмoсфернoе давление в разных тoчках местнoсти мoжет значительнo oтличаться oт давления на метеoстанции, в зависимoсти oт услoвий рельефа (при пoдъёме на 10 м давление пoнижается примернo на 1 мм рт.ст.).